Total_Precipitation_Accumulation
2.82 2.84 2.78 2.76 2.62 2.78 2.92 2.96 2.78 2.69 2.61 2.46 2.23 2.22 2.40 2.49 2.66 2.70 2.75 2.78 2.58 2.73 3.23 3.65 3.72 3.72 3.66 3.59 3.54 3.51 3.42 3.48 3.32 2.96 2.51 2.23 2.10 1.95 1.91 1.93 2.00 2.01 1.98
3.18 3.19 3.26 3.19 2.90 2.93 3.07 3.24 3.13 3.00 2.73 2.57 2.41 2.41 2.40 2.39 2.58 2.77 2.81 2.84 2.71 2.66 3.07 3.61 3.94 4.08 4.06 4.03 3.88 3.66 3.47 3.37 3.34 3.22 2.93 2.53 2.31 2.15 2.07 1.98 1.96 1.92 1.87
3.51 3.53 3.66 3.60 3.23 3.16 3.31 3.48 3.50 3.39 2.99 2.68 2.61 2.65 2.64 2.70 2.61 2.60 2.80 2.88 2.77 2.78 3.00 3.21 3.51 3.76 3.94 4.05 4.07 3.90 3.70 3.44 3.30 3.24 3.20 2.96 2.65 2.40 2.23 2.12 2.07 1.98 1.87
3.56 3.73 3.62 3.43 3.36 3.42 3.67 3.91 3.87 3.82 3.60 3.31 3.12 2.81 2.64 2.65 2.60 2.72 2.72 2.77 3.07 2.96 2.94 2.84 3.01 3.32 3.60 3.90 4.13 4.17 4.05 3.82 3.51 3.31 3.26 3.10 2.84 2.53 2.30 2.15 2.13 2.08 1.99
3.67 3.90 3.91 3.87 3.76 3.79 3.86 3.75 3.98 3.89 3.99 3.77 3.28 3.01 2.78 2.66 2.65 2.68 2.74 2.71 2.85 2.99 2.95 2.76 2.81 3.05 3.28 3.63 3.89 4.13 4.22 4.12 3.88 3.55 3.38 3.28 3.06 2.79 2.53 2.35 2.21 2.16 2.09
4.02 4.18 4.11 4.16 4.20 4.27 4.13 4.10 4.20 4.00 3.88 3.77 3.35 3.13 2.90 2.65 2.63 2.59 2.51 2.55 2.63 2.55 2.62 2.60 2.71 2.64 2.88 3.19 3.49 3.90 4.31 4.41 4.33 4.04 3.80 3.66 3.39 3.01 2.69 2.53 2.40 2.32 2.24
4.59 4.67 4.70 4.67 4.51 4.40 4.26 4.15 4.14 4.06 3.80 3.58 3.55 3.21 2.76 2.37 2.21 2.13 2.16 2.24 2.24 2.22 2.33 2.52 2.68 2.62 2.50 2.65 2.98 3.54 4.22 4.52 4.57 4.40 4.14 3.96 3.62 3.21 2.91 2.68 2.52 2.39 2.29
5.31 5.17 5.18 4.88 4.56 4.39 4.23 4.06 3.99 3.84 3.51 3.37 3.39 3.41 2.93 2.46 2.01 1.75 1.85 1.83 1.88 2.05 2.14 2.10 2.21 2.27 2.19 2.27 2.26 2.67 3.13 3.61 4.04 4.26 4.18 3.98 3.72 3.41 3.13 2.93 2.82 2.74 2.60
5.38 5.17 4.96 4.79 4.59 4.41 4.22 4.12 4.02 3.89 3.56 3.35 3.28 3.50 3.33 2.86 2.29 1.96 1.78 1.78 1.88 1.98 1.96 1.93 1.93 1.93 1.97 2.09 2.15 2.29 2.52 2.78 3.24 3.62 3.82 3.73 3.53 3.31 3.17 3.11 3.07 3.11 3.10
5.02 4.65 4.48 4.52 4.42 4.21 3.98 3.66 3.55 3.55 3.46 3.26 3.16 3.02 2.98 2.92 2.71 2.38 2.09 2.05 2.08 2.03 1.96 1.93 2.01 2.08 2.09 2.19 2.18 2.04 2.04 2.15 2.48 2.84 3.23 3.32 3.22 3.11 3.07 3.18 3.28 3.41 3.46
4.43 4.16 4.07 4.17 4.08 3.82 3.63 3.35 3.15 3.00 2.99 3.01 3.01 2.91 2.79 2.71 2.53 2.40 2.22 2.11 2.07 1.99 1.91 1.87 1.95 2.06 2.12 2.09 2.05 1.94 1.95 1.95 2.10 2.31 2.61 2.93 3.06 3.11 3.15 3.25 3.37 3.42 3.48
3.87 3.52 3.30 3.25 3.17 2.98 2.89 2.85 2.78 2.73 2.73 2.76 2.77 2.69 2.61 2.58 2.51 2.49 2.35 2.10 2.04 2.08 2.00 1.87 1.78 1.79 1.82 1.92 1.91 2.04 1.93 1.91 1.96 2.04 2.07 2.23 2.49 2.71 2.93 3.07 3.13 3.29 3.42
3.18 2.80 2.57 2.48 2.45 2.41 2.38 2.40 2.43 2.43 2.41 2.48 2.45 2.41 2.35 2.27 2.28 2.44 2.54 2.37 2.20 2.06 2.04 1.93 1.76 1.78 1.71 1.79 1.99 2.04 1.88 1.79 1.84 1.86 1.76 1.77 1.95 2.17 2.28 2.45 2.68 2.90 3.13
2.52 2.38 2.21 2.09 2.06 2.09 2.09 2.20 2.18 2.10 2.09 2.12 2.05 2.10 2.09 2.02 2.13 2.31 2.45 2.63 2.59 2.30 2.08 1.96 1.85 1.79 1.80 1.82 1.98 1.98 1.77 1.66 1.60 1.66 1.67 1.63 1.63 1.71 1.81 1.89 2.03 2.18 2.40
2.01 1.96 1.91 1.87 1.79 1.75 1.72 1.72 1.72 1.74 1.80 1.80 1.76 1.75 1.74 1.78 1.91 2.04 2.20 2.46 2.70 2.59 2.28 2.04 1.98 1.89 1.83 1.89 2.06 1.79 1.68 1.67 1.51 1.42 1.42 1.41 1.43 1.47 1.54 1.54 1.57 1.66 1.77
1.63 1.62 1.57 1.55 1.59 1.61 1.54 1.46 1.41 1.42 1.47 1.54 1.60 1.57 1.54 1.54 1.63 1.68 1.80 1.98 2.27 2.49 2.32 1.94 1.86 1.78 1.77 1.70 1.94 1.72 1.69 1.68 1.44 1.27 1.20 1.19 1.21 1.26 1.28 1.30 1.34 1.38 1.47
1.44 1.39 1.39 1.39 1.35 1.33 1.32 1.35 1.31 1.33 1.42 1.44 1.41 1.42 1.43 1.48 1.56 1.52 1.59 1.71 1.88 2.12 2.29 2.06 1.91 1.81 1.77 1.81 1.81 1.70 1.60 1.49 1.36 1.28 1.12 1.05 1.05 1.12 1.13 1.14 1.20 1.25 1.28
1.36 1.35 1.36 1.29 1.14 1.09 1.18 1.26 1.25 1.22 1.34 1.35 1.30 1.36 1.37 1.41 1.48 1.51 1.60 1.70 1.79 1.99 2.14 2.19 2.02 1.88 1.80 1.78 1.81 1.74 1.47 1.33 1.28 1.31 1.15 1.03 0.96 0.94 1.04 1.04 1.06 1.15 1.25
1.31 1.26 1.21 1.20 1.12 1.02 1.04 1.06 1.10 1.09 1.15 1.21 1.21 1.28 1.33 1.40 1.40 1.45 1.53 1.60 1.71 1.82 2.01 2.11 1.99 1.88 1.81 1.74 1.87 1.75 1.62 1.68 1.38 1.28 1.17 1.08 1.00 0.98 1.19 1.23 1.03 1.03 1.10
1.24 1.20 1.12 1.07 1.05 1.00 0.89 0.85 0.89 0.98 1.08 1.08 1.07 1.18 1.24 1.30 1.31 1.39 1.43 1.52 1.60 1.80 1.97 2.03 1.92 1.81 1.76 1.78 1.90 1.91 1.82 1.74 1.58 1.26 1.25 1.18 1.12 1.12 1.44 1.95 1.45 1.15 1.10
1.06 1.04 0.98 0.93 0.95 0.88 0.76 0.79 0.82 0.84 0.96 1.00 1.00 1.06 1.11 1.14 1.16 1.21 1.21 1.35 1.53 1.72 1.84 1.93 1.88 1.83 1.78 1.89 1.90 1.84 1.80 1.78 1.62 1.43 1.42 1.30 1.41 1.66 2.15 2.76 2.28 1.66 1.43
1.10 1.06 1.02 0.97 0.91 0.78 0.76 0.72 0.73 0.78 0.88 0.98 1.08 1.08 1.00 0.99 0.96 0.92 0.96 1.08 1.27 1.52 1.76 1.89 1.84 1.84 1.82 1.88 1.98 1.97 1.92 1.96 1.91 1.59 1.52 1.46 1.65 2.38 3.00 3.27 2.80 1.98 1.68
1.27 1.17 1.06 1.01 0.95 0.83 0.73 0.61 0.60 0.68 0.87 1.01 1.11 1.10 0.92 0.84 0.96 0.96 0.98 1.00 1.09 1.22 1.48 1.77 1.87 1.78 1.82 1.91 2.10 2.15 2.08 2.05 2.01 1.76 1.78 1.74 1.90 2.69 2.91 3.02 2.84 2.04 1.73
1.21 1.13 1.04 1.01 0.97 0.77 0.65 0.57 0.58 0.64 0.78 0.83 0.87 0.95 1.03 1.03 0.96 1.01 1.02 1.12 1.18 1.27 1.34 1.48 1.71 1.67 1.64 1.79 1.98 2.01 2.00 1.96 1.89 1.76 1.79 1.92 2.06 2.55 2.50 2.59 2.61 2.08 1.76
1.16 1.04 0.96 0.95 0.92 0.77 0.69 0.64 0.63 0.67 0.74 0.71 0.68 0.74 0.83 0.87 0.87 0.94 1.05 1.24 1.30 1.40 1.37 1.53 1.56 1.49 1.50 1.55 1.56 1.67 1.94 2.13 2.02 1.74 1.61 1.75 1.92 2.22 2.26 2.32 2.20 1.99 1.80
1.12 0.93 0.85 0.88 0.83 0.79 0.70 0.59 0.56 0.58 0.69 0.71 0.74 0.79 0.77 0.70 0.75 0.85 1.05 1.31 1.48 1.53 1.59 1.71 1.67 1.63 1.53 1.51 1.44 1.51 1.86 2.14 2.11 1.88 1.59 1.62 1.73 1.93 2.17 2.11 1.93 1.79 1.81